owner,sensor,date,latitude,longitude,vertical_datum,sea_water_temperature,qcFlag
Shell,ioos:station:wmo:42906:1,2022-05-01T08:33:00Z,28.0847,-89.0551,17.0,25.1,11111222
Shell,ioos:station:wmo:42906:1,2022-05-01T08:43:00Z,28.0847,-89.0550,17.0,25.2,11111222
Shell,ioos:station:wmo:42906:1,2022-05-01T08:53:00Z,28.0848,-89.0551,17.0,25.1,11111222
Shell,ioos:station:wmo:42906:1,2022-05-01T09:03:00Z,28.0850,-89.0549,17.0,25.1,11111222
Shell,ioos:station:wmo:42906:1,2022-05-01T09:13:00Z,28.0847,-89.0550,17.0,25.1,11111222
Shell,ioos:station:wmo:42906:1,2022-05-01T09:23:00Z,28.0848,-89.0550,17.0,25.1,11111222
Shell,ioos:station:wmo:42906:1,2022-05-01T09:33:00Z,28.0848,-89.0550,17.0,25.1,11111222
Shell,ioos:station:wmo:42906:1,2022-05-01T09:43:00Z,28.0848,-89.0550,17.0,25.1,11111222
Shell,ioos:station:wmo:42906:1,2022-05-01T09:53:00Z,28.0848,-89.0550,17.0,25.1,11111222
Shell,ioos:station:wmo:42906:1,2022-05-01T10:03:00Z,28.0848,-89.0550,17.0,25.2,11111222
Shell,ioos:station:wmo:42906:1,2022-05-01T10:13:00Z,28.0848,-89.0550,17.0,25.1,11111222
Shell,ioos:station:wmo:42906:1,2022-05-01T10:23:00Z,28.0847,-89.0551,17.0,25.1,11111222
Shell,ioos:station:wmo:42906:1,2022-05-01T10:33:00Z,28.0848,-89.0551,17.0,25.2,11111222
Shell,ioos:station:wmo:42906:1,2022-05-01T10:43:00Z,28.0848,-89.0550,17.0,25.1,11111222
Shell,ioos:station:wmo:42906:1,2022-05-01T10:53:00Z,28.0847,-89.0551,17.0,25.1,11111222
Shell,ioos:station:wmo:42906:1,2022-05-01T11:03:00Z,28.0847,-89.0550,17.0,25.1,11111222
Shell,ioos:station:wmo:42906:1,2022-05-01T11:13:00Z,28.0848,-89.0550,17.0,25.1,11111222
Shell,ioos:station:wmo:42906:1,2022-05-01T11:23:00Z,28.0848,-89.0550,17.0,25.1,11111222
Shell,ioos:station:wmo:42906:1,2022-05-01T11:33:00Z,28.0848,-89.0551,17.0,25.1,11111222
Shell,ioos:station:wmo:42906:1,2022-05-01T11:43:00Z,28.0849,-89.0550,17.0,25.2,11111222
Shell,ioos:station:wmo:42906:1,2022-05-01T11:53:00Z,28.0848,-89.0551,17.0,25.2,11111222
Shell,ioos:station:wmo:42906:1,2022-05-01T12:03:00Z,28.0849,-89.0551,17.0,25.2,11111222
Shell,ioos:station:wmo:42906:1,2022-05-04T10:46:00Z,28.0851,-89.0565,17.0,25.7,11111222
Shell,ioos:station:wmo:42906:1,2022-05-04T10:56:00Z,28.0851,-89.0567,17.0,25.7,11111222
Shell,ioos:station:wmo:42906:1,2022-05-04T11:06:00Z,28.0851,-89.0569,17.0,25.7,11111222
Shell,ioos:station:wmo:42906:1,2022-05-04T11:16:00Z,28.0851,-89.0568,17.0,25.7,11111222
Shell,ioos:station:wmo:42906:1,2022-05-04T11:26:00Z,28.0851,-89.0570,17.0,25.7,11111222
Shell,ioos:station:wmo:42906:1,2022-05-04T11:36:00Z,28.0851,-89.0567,17.0,25.7,11111222
Shell,ioos:station:wmo:42906:1,2022-05-04T11:46:00Z,28.0851,-89.0568,17.0,25.6,11111222
Shell,ioos:station:wmo:42906:1,2022-05-04T11:56:00Z,28.0850,-89.0570,17.0,25.7,11111222
Shell,ioos:station:wmo:42906:1,2022-05-04T12:06:00Z,28.0851,-89.0567,17.0,25.7,11111222
Shell,ioos:station:wmo:42906:1,2022-05-04T12:16:00Z,28.0851,-89.0566,17.0,25.6,11111222
Shell,ioos:station:wmo:42906:1,2022-05-04T12:26:00Z,28.0850,-89.0566,17.0,25.6,11111222
Shell,ioos:station:wmo:42906:1,2022-05-04T12:36:00Z,28.0852,-89.0568,17.0,25.6,11111222
Shell,ioos:station:wmo:42906:1,2022-05-04T12:46:00Z,28.0854,-89.0569,17.0,25.6,11111222
Shell,ioos:station:wmo:42906:1,2022-05-04T12:56:00Z,28.0854,-89.0571,17.0,25.7,11111222
Shell,ioos:station:wmo:42906:1,2022-05-04T13:06:00Z,28.0853,-89.0570,17.0,25.7,11111222
Shell,ioos:station:wmo:42906:1,2022-05-04T13:16:00Z,28.0853,-89.0569,17.0,25.7,11111222
Shell,ioos:station:wmo:42906:1,2022-05-04T13:26:00Z,28.0852,-89.0565,17.0,25.7,11111222
Shell,ioos:station:wmo:42906:1,2022-05-04T13:36:00Z,28.0849,-89.0565,17.0,25.7,11111222
Shell,ioos:station:wmo:42906:1,2022-05-04T13:46:00Z,28.0851,-89.0564,17.0,25.7,11111222
Shell,ioos:station:wmo:42906:1,2022-05-04T13:56:00Z,28.0851,-89.0566,17.0,25.8,11111222
Shell,ioos:station:wmo:42906:1,2022-05-04T14:06:00Z,28.0852,-89.0563,17.0,25.7,11111222
Shell,ioos:station:wmo:42906:1,2022-05-04T14:16:00Z,28.0854,-89.0560,17.0,25.7,11111222
Shell,ioos:station:wmo:42906:1,2022-05-04T14:26:00Z,28.0851,-89.0565,17.0,25.6,11111222
Shell,ioos:station:wmo:42906:1,2022-05-04T14:36:00Z,28.0850,-89.0568,17.0,25.6,11111222
Shell,ioos:station:wmo:42906:1,2022-05-04T14:46:00Z,28.0850,-89.0569,17.0,25.6,11111222
Shell,ioos:station:wmo:42906:1,2022-05-04T14:56:00Z,28.0851,-89.0566,17.0,25.5,11111222
Shell,ioos:station:wmo:42906:1,2022-05-04T15:06:00Z,28.0851,-89.0567,17.0,25.5,11111222
Shell,ioos:station:wmo:42906:1,2022-05-04T15:16:00Z,28.0851,-89.0567,17.0,25.6,11111222
Shell,ioos:station:wmo:42906:1,2022-05-04T15:26:00Z,28.0851,-89.0565,17.0,25.6,11111222
Shell,ioos:station:wmo:42906:1,2022-05-04T15:36:00Z,28.0851,-89.0566,17.0,25.6,11111222
Shell,ioos:station:wmo:42906:1,2022-05-04T15:46:00Z,28.0851,-89.0565,17.0,25.6,11111222
Shell,ioos:station:wmo:42906:1,2022-05-04T15:56:00Z,28.0851,-89.0566,17.0,25.7,11111222
Shell,ioos:station:wmo:42906:1,2022-05-04T16:06:00Z,28.0851,-89.0565,17.0,25.7,11111222
Shell,ioos:station:wmo:42906:1,2022-05-04T16:16:00Z,28.0851,-89.0565,17.0,25.7,11111222
Shell,ioos:station:wmo:42906:1,2022-05-04T16:26:00Z,28.0851,-89.0565,17.0,25.7,11111222
Shell,ioos:station:wmo:42906:1,2022-05-04T16:36:00Z,28.0852,-89.0566,17.0,25.7,11111222
Shell,ioos:station:wmo:42906:1,2022-05-04T16:46:00Z,28.0851,-89.0565,17.0,25.7,11111222
Shell,ioos:station:wmo:42906:1,2022-05-04T16:56:00Z,28.0852,-89.0567,17.0,25.7,11111222
Shell,ioos:station:wmo:42906:1,2022-05-04T17:06:00Z,28.0852,-89.0567,17.0,25.9,11111222
Shell,ioos:station:wmo:42906:1,2022-05-04T17:16:00Z,28.0851,-89.0568,17.0,25.9,11111222
Shell,ioos:station:wmo:42906:1,2022-05-04T17:26:00Z,28.0852,-89.0567,17.0,25.9,11111222
Shell,ioos:station:wmo:42906:1,2022-05-04T17:36:00Z,28.0852,-89.0568,17.0,26.0,11111222
Shell,ioos:station:wmo:42906:1,2022-05-04T17:46:00Z,28.0851,-89.0566,17.0,25.9,11111222
Shell,ioos:station:wmo:42906:1,2022-05-04T17:56:00Z,28.0851,-89.0566,17.0,26.0,11111222
Shell,ioos:station:wmo:42906:1,2022-05-04T18:06:00Z,28.0851,-89.0566,17.0,26.1,11111222
Shell,ioos:station:wmo:42906:1,2022-05-04T18:16:00Z,28.0850,-89.0561,17.0,26.1,11111222
Shell,ioos:station:wmo:42906:1,2022-05-04T18:26:00Z,28.0851,-89.0565,17.0,26.1,11111222
Shell,ioos:station:wmo:42906:1,2022-05-04T18:36:00Z,28.0851,-89.0569,17.0,26.1,11111222
Shell,ioos:station:wmo:42906:1,2022-05-04T18:46:00Z,28.0851,-89.0566,17.0,26.2,11111222
Shell,ioos:station:wmo:42906:1,2022-05-04T18:56:00Z,28.0851,-89.0564,17.0,26.2,11111222
Shell,ioos:station:wmo:42906:1,2022-05-04T19:06:00Z,28.0851,-89.0566,17.0,26.2,11111222
Shell,ioos:station:wmo:42906:1,2022-05-04T19:16:00Z,28.0851,-89.0565,17.0,26.3,11111222
Shell,ioos:station:wmo:42906:1,2022-05-04T19:26:00Z,28.0851,-89.0565,17.0,26.3,11111222
Shell,ioos:station:wmo:42906:1,2022-05-04T19:36:00Z,28.0852,-89.0567,17.0,26.3,11111222
Shell,ioos:station:wmo:42906:1,2022-05-04T19:46:00Z,28.0844,-89.0559,17.0,26.2,11111222
Shell,ioos:station:wmo:42906:1,2022-05-04T19:56:00Z,28.0852,-89.0568,17.0,26.3,11111222
Shell,ioos:station:wmo:42906:1,2022-05-04T20:06:00Z,28.0851,-89.0566,17.0,26.3,11111222
Shell,ioos:station:wmo:42906:1,2022-05-04T20:16:00Z,28.0852,-89.0566,17.0,26.3,11111222
Shell,ioos:station:wmo:42906:1,2022-05-04T20:26:00Z,28.0852,-89.0568,17.0,26.3,11111222
Shell,ioos:station:wmo:42906:1,2022-05-04T20:36:00Z,28.0849,-89.0573,17.0,26.4,11111222
Shell,ioos:station:wmo:42906:1,2022-05-04T20:46:00Z,28.0851,-89.0566,17.0,26.3,11111222
Shell,ioos:station:wmo:42906:1,2022-05-04T20:56:00Z,28.0851,-89.0566,17.0,26.3,11111222
Shell,ioos:station:wmo:42906:1,2022-05-04T21:06:00Z,28.0851,-89.0565,17.0,26.4,11111222
Shell,ioos:station:wmo:42906:1,2022-05-04T21:16:00Z,28.0850,-89.0568,17.0,26.3,11111222
Shell,ioos:station:wmo:42906:1,2022-05-04T21:26:00Z,28.0850,-89.0568,17.0,26.3,11111222
Shell,ioos:station:wmo:42906:1,2022-05-04T21:36:00Z,28.0851,-89.0567,17.0,26.3,11111222
Shell,ioos:station:wmo:42906:1,2022-05-04T21:46:00Z,28.0851,-89.0565,17.0,26.3,11111222
Shell,ioos:station:wmo:42906:1,2022-05-04T21:56:00Z,28.0852,-89.0567,17.0,26.3,11111222
Shell,ioos:station:wmo:42906:1,2022-05-04T22:06:00Z,28.0852,-89.0567,17.0,26.3,11111222
Shell,ioos:station:wmo:42906:1,2022-05-04T22:16:00Z,28.0850,-89.0563,17.0,26.4,11111222
Shell,ioos:station:wmo:42906:1,2022-05-04T22:26:00Z,28.0846,-89.0555,17.0,26.3,11111222
Shell,ioos:station:wmo:42906:1,2022-05-04T22:36:00Z,28.0847,-89.0555,17.0,26.3,11111222
Shell,ioos:station:wmo:42906:1,2022-05-04T22:46:00Z,28.0847,-89.0555,17.0,26.4,11111222
Shell,ioos:station:wmo:42906:1,2022-05-04T22:56:00Z,28.0847,-89.0554,17.0,26.4,11111222
Shell,ioos:station:wmo:42906:1,2022-05-04T23:06:00Z,28.0847,-89.0554,17.0,26.4,11111222
Shell,ioos:station:wmo:42906:1,2022-05-04T23:16:00Z,28.0847,-89.0556,17.0,26.4,11111222
Shell,ioos:station:wmo:42906:1,2022-05-04T23:26:00Z,28.0845,-89.0556,17.0,26.4,11111222
Shell,ioos:station:wmo:42906:1,2022-05-04T23:36:00Z,28.0846,-89.0556,17.0,26.4,11111222
Shell,ioos:station:wmo:42906:1,2022-05-04T23:46:00Z,28.0846,-89.0554,17.0,26.4,11111222
Shell,ioos:station:wmo:42906:1,2022-05-04T23:56:00Z,28.0846,-89.0552,17.0,26.4,11111222
Shell,ioos:station:wmo:42906:1,2022-05-05T00:06:00Z,28.0846,-89.0554,17.0,26.4,11111222
Shell,ioos:station:wmo:42906:1,2022-05-05T00:16:00Z,28.0846,-89.0557,17.0,26.4,11111222
Shell,ioos:station:wmo:42906:1,2022-05-05T00:26:00Z,28.0845,-89.0562,17.0,26.4,11111222
Shell,ioos:station:wmo:42906:1,2022-05-05T00:36:00Z,28.0846,-89.0555,17.0,26.4,11111222
Shell,ioos:station:wmo:42906:1,2022-05-05T00:46:00Z,28.0846,-89.0555,17.0,26.4,11111222
Shell,ioos:station:wmo:42906:1,2022-05-05T00:56:00Z,28.0850,-89.0558,17.0,26.4,11111222
Shell,ioos:station:wmo:42906:1,2022-05-05T01:06:00Z,28.0847,-89.0556,17.0,26.4,11111222
Shell,ioos:station:wmo:42906:1,2022-05-05T01:16:00Z,28.0846,-89.0554,17.0,26.4,11111222
Shell,ioos:station:wmo:42906:1,2022-05-05T01:26:00Z,28.0847,-89.0557,17.0,26.4,11111222
Shell,ioos:station:wmo:42906:1,2022-05-05T01:36:00Z,28.0846,-89.0557,17.0,26.4,11111222
Shell,ioos:station:wmo:42906:1,2022-05-05T01:46:00Z,28.0847,-89.0555,17.0,26.4,11111222
Shell,ioos:station:wmo:42906:1,2022-05-05T01:56:00Z,28.0846,-89.0557,17.0,26.4,11111222
Shell,ioos:station:wmo:42906:1,2022-05-05T02:06:00Z,28.0846,-89.0556,17.0,26.4,11111222
Shell,ioos:station:wmo:42906:1,2022-05-05T02:16:00Z,28.0847,-89.0556,17.0,26.4,11111222
Shell,ioos:station:wmo:42906:1,2022-05-05T02:26:00Z,28.0848,-89.0554,17.0,26.4,11111222
Shell,ioos:station:wmo:42906:1,2022-05-05T02:36:00Z,28.0847,-89.0552,17.0,26.4,11111222
Shell,ioos:station:wmo:42906:1,2022-05-05T02:46:00Z,28.0847,-89.0554,17.0,26.4,11111222
Shell,ioos:station:wmo:42906:1,2022-05-05T02:56:00Z,28.0845,-89.0556,17.0,26.4,11111222
Shell,ioos:station:wmo:42906:1,2022-05-05T03:06:00Z,28.0846,-89.0555,17.0,26.3,11111222
Shell,ioos:station:wmo:42906:1,2022-05-05T03:16:00Z,28.0846,-89.0556,17.0,26.3,11111222
Shell,ioos:station:wmo:42906:1,2022-05-05T03:26:00Z,28.0847,-89.0555,17.0,26.3,11111222
Shell,ioos:station:wmo:42906:1,2022-05-05T03:36:00Z,28.0847,-89.0556,17.0,26.4,11111222
Shell,ioos:station:wmo:42906:1,2022-05-05T03:46:00Z,28.0846,-89.0554,17.0,26.3,11111222
Shell,ioos:station:wmo:42906:1,2022-05-05T03:56:00Z,28.0847,-89.0554,17.0,26.3,11111222
Shell,ioos:station:wmo:42906:1,2022-05-05T04:06:00Z,28.0848,-89.0559,17.0,26.3,11111222
Shell,ioos:station:wmo:42906:1,2022-05-05T04:16:00Z,28.0847,-89.0556,17.0,26.3,11111222
Shell,ioos:station:wmo:42906:1,2022-05-05T04:26:00Z,28.0848,-89.0558,17.0,26.4,11111222
Shell,ioos:station:wmo:42906:1,2022-05-05T04:36:00Z,28.0848,-89.0555,17.0,26.3,11111222
Shell,ioos:station:wmo:42906:1,2022-05-05T04:46:00Z,28.0847,-89.0555,17.0,26.3,11111222
Shell,ioos:station:wmo:42906:1,2022-05-05T04:56:00Z,28.0846,-89.0555,17.0,26.2,11111222
Shell,ioos:station:wmo:42906:1,2022-05-05T05:06:00Z,28.0847,-89.0555,17.0,26.1,11111222
Shell,ioos:station:wmo:42906:1,2022-05-05T05:16:00Z,28.0846,-89.0558,17.0,26.2,11111222
Shell,ioos:station:wmo:42906:1,2022-05-05T05:26:00Z,28.0846,-89.0557,17.0,26.2,11111222
Shell,ioos:station:wmo:42906:1,2022-05-05T05:36:00Z,28.0847,-89.0555,17.0,26.2,11111222
Shell,ioos:station:wmo:42906:1,2022-05-05T05:46:00Z,28.0847,-89.0557,17.0,26.2,11111222
Shell,ioos:station:wmo:42906:1,2022-05-05T05:56:00Z,28.0847,-89.0555,17.0,26.2,11111222
Shell,ioos:station:wmo:42906:1,2022-05-05T06:06:00Z,28.0848,-89.0556,17.0,26.2,11111222
Shell,ioos:station:wmo:42906:1,2022-05-05T06:16:00Z,28.0846,-89.0552,17.0,26.2,11111222
Shell,ioos:station:wmo:42906:1,2022-05-05T06:26:00Z,28.0847,-89.0556,17.0,26.1,11111222
Shell,ioos:station:wmo:42906:1,2022-05-05T06:36:00Z,28.0845,-89.0550,17.0,26.1,11111222
Shell,ioos:station:wmo:42906:1,2022-05-05T06:46:00Z,28.0845,-89.0553,17.0,25.9,11111222
Shell,ioos:station:wmo:42906:1,2022-05-05T06:56:00Z,28.0849,-89.0562,17.0,25.8,11111222
Shell,ioos:station:wmo:42906:1,2022-05-05T07:06:00Z,28.0851,-89.0568,17.0,26.0,11111222
Shell,ioos:station:wmo:42906:1,2022-05-05T07:16:00Z,28.0851,-89.0571,17.0,26.0,11111222
Shell,ioos:station:wmo:42906:1,2022-05-05T07:26:00Z,28.0850,-89.0566,17.0,26.0,11111222
Shell,ioos:station:wmo:42906:1,2022-05-05T07:36:00Z,28.0851,-89.0567,17.0,26.0,11111222
Shell,ioos:station:wmo:42906:1,2022-05-05T07:46:00Z,28.0851,-89.0567,17.0,25.9,11111222
Shell,ioos:station:wmo:42906:1,2022-05-05T07:56:00Z,28.0851,-89.0569,17.0,25.8,11111222
Shell,ioos:station:wmo:42906:1,2022-05-05T08:06:00Z,28.0850,-89.0566,17.0,25.8,11111222
Shell,ioos:station:wmo:42906:1,2022-05-05T08:16:00Z,28.0850,-89.0566,17.0,25.8,11111222
Shell,ioos:station:wmo:42906:1,2022-05-05T08:26:00Z,28.0850,-89.0565,17.0,25.8,11111222
Shell,ioos:station:wmo:42906:1,2022-05-05T08:36:00Z,28.0851,-89.0566,17.0,25.8,11111222
Shell,ioos:station:wmo:42906:1,2022-05-05T08:46:00Z,28.0850,-89.0565,17.0,25.7,11111222
Shell,ioos:station:wmo:42906:1,2022-05-05T08:56:00Z,28.0851,-89.0564,17.0,25.6,11111222
Shell,ioos:station:wmo:42906:1,2022-05-05T09:06:00Z,28.0850,-89.0567,17.0,25.5,11111222
Shell,ioos:station:wmo:42906:1,2022-05-05T09:16:00Z,28.0850,-89.0566,17.0,25.4,11111222
Shell,ioos:station:wmo:42906:1,2022-05-05T09:26:00Z,28.0850,-89.0567,17.0,25.4,11111222
Shell,ioos:station:wmo:42906:1,2022-05-05T09:36:00Z,28.0853,-89.0568,17.0,25.4,11111222
Shell,ioos:station:wmo:42906:1,2022-05-05T09:46:00Z,28.0851,-89.0567,17.0,25.3,11111222
Shell,ioos:station:wmo:42906:1,2022-05-05T09:56:00Z,28.0853,-89.0570,17.0,25.3,11111222
Shell,ioos:station:wmo:42906:1,2022-05-05T10:06:00Z,28.0853,-89.0572,17.0,25.4,11111222
Shell,ioos:station:wmo:42906:1,2022-05-05T10:16:00Z,28.0851,-89.0568,17.0,25.4,11111222
Shell,ioos:station:wmo:42906:1,2022-05-05T10:26:00Z,28.0850,-89.0567,17.0,25.3,11111222
Shell,ioos:station:wmo:42906:1,2022-05-05T10:36:00Z,28.0851,-89.0570,17.0,25.3,11111222
Shell,ioos:station:wmo:42906:1,2022-05-05T10:46:00Z,28.0850,-89.0562,17.0,25.4,11111222
Shell,ioos:station:wmo:42906:1,2022-05-05T10:56:00Z,28.0850,-89.0568,17.0,25.4,11111222
Shell,ioos:station:wmo:42906:1,2022-05-05T11:06:00Z,28.0850,-89.0569,17.0,25.4,11111222
Shell,ioos:station:wmo:42906:1,2022-05-05T11:16:00Z,28.0850,-89.0567,17.0,25.4,11111222
Shell,ioos:station:wmo:42906:1,2022-05-05T11:26:00Z,28.0850,-89.0570,17.0,25.4,11111222
Shell,ioos:station:wmo:42906:1,2022-05-05T11:36:00Z,28.0855,-89.0534,17.0,25.5,11111222
Shell,ioos:station:wmo:42906:1,2022-05-05T11:46:00Z,28.0856,-89.0537,17.0,25.5,11111222
Shell,ioos:station:wmo:42906:1,2022-05-05T11:56:00Z,28.0858,-89.0540,17.0,25.5,11111222
Shell,ioos:station:wmo:42906:1,2022-05-05T12:06:00Z,28.0849,-89.0568,17.0,25.5,11111222
Shell,ioos:station:wmo:42906:1,2022-05-05T12:16:00Z,28.0850,-89.0566,17.0,25.6,11111222
Shell,ioos:station:wmo:42906:1,2022-05-05T12:26:00Z,28.0850,-89.0567,17.0,25.6,11111222
Shell,ioos:station:wmo:42906:1,2022-05-05T12:36:00Z,28.0853,-89.0568,17.0,25.6,11111222
Shell,ioos:station:wmo:42906:1,2022-05-05T12:46:00Z,28.0853,-89.0569,17.0,25.6,11111222
Shell,ioos:station:wmo:42906:1,2022-05-05T12:56:00Z,28.0852,-89.0570,17.0,25.6,11111222
Shell,ioos:station:wmo:42906:1,2022-05-05T13:06:00Z,28.0852,-89.0570,17.0,25.6,11111222
Shell,ioos:station:wmo:42906:1,2022-05-05T13:16:00Z,28.0851,-89.0569,17.0,25.6,11111222
Shell,ioos:station:wmo:42906:1,2022-05-05T13:26:00Z,28.0851,-89.0567,17.0,25.6,11111222
Shell,ioos:station:wmo:42906:1,2022-05-05T13:36:00Z,28.0850,-89.0565,17.0,25.5,11111222
Shell,ioos:station:wmo:42906:1,2022-05-05T13:46:00Z,28.0850,-89.0569,17.0,25.5,11111222
Shell,ioos:station:wmo:42906:1,2022-05-05T13:56:00Z,28.0851,-89.0567,17.0,25.6,11111222
Shell,ioos:station:wmo:42906:1,2022-05-05T14:06:00Z,28.0850,-89.0571,17.0,25.7,11111222
Shell,ioos:station:wmo:42906:1,2022-05-05T14:16:00Z,28.0852,-89.0561,17.0,25.8,11111222
Shell,ioos:station:wmo:42906:1,2022-05-05T14:26:00Z,28.0849,-89.0567,17.0,25.8,11111222
Shell,ioos:station:wmo:42906:1,2022-05-05T14:36:00Z,28.0849,-89.0569,17.0,25.8,11111222
Shell,ioos:station:wmo:42906:1,2022-05-05T14:46:00Z,28.0849,-89.0571,17.0,25.7,11111222
Shell,ioos:station:wmo:42906:1,2022-05-05T14:56:00Z,28.0850,-89.0566,17.0,25.7,11111222
Shell,ioos:station:wmo:42906:1,2022-05-05T15:06:00Z,28.0850,-89.0568,17.0,25.7,11111222
Shell,ioos:station:wmo:42906:1,2022-05-05T15:16:00Z,28.0851,-89.0569,17.0,25.8,11111222
Shell,ioos:station:wmo:42906:1,2022-05-05T15:26:00Z,28.0850,-89.0566,17.0,25.9,11111222
Shell,ioos:station:wmo:42906:1,2022-05-05T15:36:00Z,28.0850,-89.0567,17.0,25.9,11111222
Shell,ioos:station:wmo:42906:1,2022-05-05T15:46:00Z,28.0850,-89.0567,17.0,26.0,11111222
Shell,ioos:station:wmo:42906:1,2022-05-05T15:56:00Z,28.0849,-89.0566,17.0,26.0,11111222
Shell,ioos:station:wmo:42906:1,2022-05-05T16:06:00Z,28.0849,-89.0566,17.0,26.1,11111222
Shell,ioos:station:wmo:42906:1,2022-05-05T16:16:00Z,28.0850,-89.0566,17.0,26.1,11111222
Shell,ioos:station:wmo:42906:1,2022-05-05T16:26:00Z,28.0850,-89.0566,17.0,26.1,11111222
Shell,ioos:station:wmo:42906:1,2022-05-05T16:36:00Z,28.0851,-89.0568,17.0,26.0,11111222
Shell,ioos:station:wmo:42906:1,2022-05-05T16:46:00Z,28.0851,-89.0567,17.0,26.1,11111222
Shell,ioos:station:wmo:42906:1,2022-05-05T16:56:00Z,28.0853,-89.0567,17.0,26.0,11111222
Shell,ioos:station:wmo:42906:1,2022-05-05T17:06:00Z,28.0851,-89.0569,17.0,26.1,11111222
Shell,ioos:station:wmo:42906:1,2022-05-05T17:16:00Z,28.0851,-89.0567,17.0,26.1,11111222
Shell,ioos:station:wmo:42906:1,2022-05-05T17:26:00Z,28.0852,-89.0567,17.0,26.1,11111222
Shell,ioos:station:wmo:42906:1,2022-05-05T17:36:00Z,28.0852,-89.0568,17.0,26.3,11111222
Shell,ioos:station:wmo:42906:1,2022-05-05T17:46:00Z,28.0850,-89.0565,17.0,26.4,11111222
Shell,ioos:station:wmo:42906:1,2022-05-05T17:56:00Z,28.0850,-89.0566,17.0,26.4,11111222
Shell,ioos:station:wmo:42906:1,2022-05-05T18:06:00Z,28.0850,-89.0565,17.0,26.4,11111222
Shell,ioos:station:wmo:42906:1,2022-05-05T18:16:00Z,28.0850,-89.0565,17.0,26.4,11111222
Shell,ioos:station:wmo:42906:1,2022-05-05T18:26:00Z,28.0850,-89.0572,17.0,26.4,11111222
Shell,ioos:station:wmo:42906:1,2022-05-05T18:36:00Z,28.0850,-89.0567,17.0,26.4,11111222
Shell,ioos:station:wmo:42906:1,2022-05-05T18:46:00Z,28.0850,-89.0569,17.0,26.4,11111222
Shell,ioos:station:wmo:42906:1,2022-05-05T18:56:00Z,28.0850,-89.0566,17.0,26.4,11111222
Shell,ioos:station:wmo:42906:1,2022-05-05T19:06:00Z,28.0850,-89.0565,17.0,26.4,11111222
Shell,ioos:station:wmo:42906:1,2022-05-05T19:16:00Z,28.0851,-89.0567,17.0,26.4,11111222
Shell,ioos:station:wmo:42906:1,2022-05-05T19:26:00Z,28.0853,-89.0571,17.0,26.4,11111222
Shell,ioos:station:wmo:42906:1,2022-05-05T19:36:00Z,28.0851,-89.0567,17.0,26.4,11111222
Shell,ioos:station:wmo:42906:1,2022-05-05T19:46:00Z,28.0850,-89.0566,17.0,26.4,11111222
Shell,ioos:station:wmo:42906:1,2022-05-05T19:56:00Z,28.0852,-89.0568,17.0,26.4,11111222
Shell,ioos:station:wmo:42906:1,2022-05-05T20:06:00Z,28.0851,-89.0566,17.0,26.4,11111222
Shell,ioos:station:wmo:42906:1,2022-05-05T20:16:00Z,28.0851,-89.0566,17.0,26.4,11111222
Shell,ioos:station:wmo:42906:1,2022-05-05T20:26:00Z,28.0851,-89.0567,17.0,26.4,11111222
Shell,ioos:station:wmo:42906:1,2022-05-05T20:36:00Z,28.0850,-89.0568,17.0,26.4,11111222
Shell,ioos:station:wmo:42906:1,2022-05-05T20:46:00Z,28.0850,-89.0566,17.0,26.5,11111222
Shell,ioos:station:wmo:42906:1,2022-05-05T20:56:00Z,28.0850,-89.0566,17.0,26.6,11111222
Shell,ioos:station:wmo:42906:1,2022-05-05T21:06:00Z,28.0851,-89.0566,17.0,26.5,11111222
Shell,ioos:station:wmo:42906:1,2022-05-05T21:16:00Z,28.0851,-89.0566,17.0,26.6,11111222
Shell,ioos:station:wmo:42906:1,2022-05-05T21:26:00Z,28.0850,-89.0567,17.0,26.6,11111222
Shell,ioos:station:wmo:42906:1,2022-05-05T21:36:00Z,28.0850,-89.0566,17.0,26.6,11111222
Shell,ioos:station:wmo:42906:1,2022-05-05T21:46:00Z,28.0850,-89.0566,17.0,26.7,11111222
Shell,ioos:station:wmo:42906:1,2022-05-05T21:56:00Z,28.0851,-89.0567,17.0,26.6,11111222
Shell,ioos:station:wmo:42906:1,2022-05-05T22:06:00Z,28.0849,-89.0564,17.0,26.6,11111222
Shell,ioos:station:wmo:42906:1,2022-05-05T22:16:00Z,28.0850,-89.0566,17.0,26.6,11111222
Shell,ioos:station:wmo:42906:1,2022-05-05T22:26:00Z,28.0850,-89.0566,17.0,26.5,11111222
Shell,ioos:station:wmo:42906:1,2022-05-05T22:36:00Z,28.0850,-89.0567,17.0,26.6,11111222
Shell,ioos:station:wmo:42906:1,2022-05-05T22:46:00Z,28.0851,-89.0567,17.0,26.5,11111222
Shell,ioos:station:wmo:42906:1,2022-05-05T22:56:00Z,28.0851,-89.0567,17.0,26.4,11111222
Shell,ioos:station:wmo:42906:1,2022-05-05T23:06:00Z,28.0851,-89.0568,17.0,26.4,11111222
Shell,ioos:station:wmo:42906:1,2022-05-05T23:16:00Z,28.0850,-89.0568,17.0,26.4,11111222
Shell,ioos:station:wmo:42906:1,2022-05-05T23:26:00Z,28.0850,-89.0565,17.0,26.4,11111222
Shell,ioos:station:wmo:42906:1,2022-05-05T23:36:00Z,28.0850,-89.0566,17.0,26.4,11111222
Shell,ioos:station:wmo:42906:1,2022-05-05T23:46:00Z,28.0849,-89.0564,17.0,26.4,11111222
Shell,ioos:station:wmo:42906:1,2022-05-05T23:56:00Z,28.0850,-89.0565,17.0,26.4,11111222
Shell,ioos:station:wmo:42906:1,2022-05-06T00:06:00Z,28.0850,-89.0568,17.0,26.5,11111222
Shell,ioos:station:wmo:42906:1,2022-05-06T00:16:00Z,28.0849,-89.0570,17.0,26.4,11111222
Shell,ioos:station:wmo:42906:1,2022-05-06T00:26:00Z,28.0850,-89.0567,17.0,26.4,11111222
Shell,ioos:station:wmo:42906:1,2022-05-06T00:36:00Z,28.0850,-89.0566,17.0,26.4,11111222
Shell,ioos:station:wmo:42906:1,2022-05-06T00:46:00Z,28.0850,-89.0567,17.0,26.4,11111222
Shell,ioos:station:wmo:42906:1,2022-05-06T00:56:00Z,28.0850,-89.0566,17.0,26.4,11111222
Shell,ioos:station:wmo:42906:1,2022-05-06T01:06:00Z,28.0850,-89.0566,17.0,26.4,11111222
Shell,ioos:station:wmo:42906:1,2022-05-06T01:16:00Z,28.0850,-89.0566,17.0,26.4,11111222
Shell,ioos:station:wmo:42906:1,2022-05-06T01:26:00Z,28.0850,-89.0566,17.0,26.4,11111222
Shell,ioos:station:wmo:42906:1,2022-05-06T01:36:00Z,28.0850,-89.0567,17.0,26.3,11111222
Shell,ioos:station:wmo:42906:1,2022-05-06T01:46:00Z,28.0850,-89.0567,17.0,26.3,11111222
Shell,ioos:station:wmo:42906:1,2022-05-06T01:56:00Z,28.0848,-89.0572,17.0,26.3,11111222
Shell,ioos:station:wmo:42906:1,2022-05-06T02:06:00Z,28.0850,-89.0570,17.0,26.3,11111222
Shell,ioos:station:wmo:42906:1,2022-05-06T02:16:00Z,28.0852,-89.0562,17.0,26.3,11111222
Shell,ioos:station:wmo:42906:1,2022-05-06T02:26:00Z,28.0850,-89.0567,17.0,26.3,11111222
Shell,ioos:station:wmo:42906:1,2022-05-06T02:36:00Z,28.0851,-89.0565,17.0,26.3,11111222
Shell,ioos:station:wmo:42906:1,2022-05-06T02:46:00Z,28.0850,-89.0568,17.0,26.2,11111222
Shell,ioos:station:wmo:42906:1,2022-05-06T02:56:00Z,28.0849,-89.0567,17.0,26.2,11111222
Shell,ioos:station:wmo:42906:1,2022-05-06T03:06:00Z,28.0853,-89.0564,17.0,26.3,11111222
Shell,ioos:station:wmo:42906:1,2022-05-06T03:16:00Z,28.0853,-89.0563,17.0,26.3,11111222
Shell,ioos:station:wmo:42906:1,2022-05-06T03:26:00Z,28.0852,-89.0563,17.0,26.2,11111222
Shell,ioos:station:wmo:42906:1,2022-05-06T03:36:00Z,28.0851,-89.0563,17.0,26.2,11111222